Location: Lombard
(41.8800°N, 88.0080°W)
Time: 05:08:46
(UTC-05:00)

Transit 4A - Visible Passes

Search period start: 29 May 2024 00:00
Search period end: 08 June 2024 00:00
Orbit: 871 x 971 km, 66.8° (Epoch: 28 May)

Date Brightness Start Highest point End Pass type
(mag) Time Alt. Az. Time Alt. Az. Time Alt. Az.
29 May 9.5 03:25:46 10° SSE 03:30:28 25° ESE 03:35:06 10° NE visible
30 May 8.9 03:34:23 12° S 03:39:17 37° ESE 03:44:36 10° NE visible
31 May 8.2 03:43:28 15° S 03:48:11 56° ESE 03:53:53 10° NE visible
01 Jun 10.1 02:09:52 10° ESE 02:11:46 12° ESE 02:13:38 10° E visible
01 Jun 7.8 03:52:29 17° SSW 03:57:09 83° ESE 04:03:00 10° NNE visible
02 Jun 9.7 02:17:58 14° SE 02:20:28 19° ESE 02:24:22 10° ENE visible
02 Jun 7.9 04:01:28 16° SW 04:06:11 68° WNW 04:12:00 10° NNE visible
03 Jun 9.1 02:26:54 21° SE 02:29:16 28° ESE 02:34:08 10° NE visible
03 Jun 8.3 04:10:24 14° SW 04:15:18 47° NW 04:20:55 10° NNE visible
04 Jun 8.5 02:35:47 29° SSE 02:38:06 42° ESE 02:43:33 10° NE visible
04 Jun 8.8 04:19:17 10° WSW 04:24:30 33° NW 04:29:45 10° NNE visible
05 Jun 7.9 02:44:37 35° S 02:47:01 64° ESE 02:52:47 10° NE visible
05 Jun 9.3 04:29:05 10° W 04:33:47 24° NW 04:38:29 10° N visible
06 Jun 9.8 01:09:56 13° ESE 01:10:31 13° ESE 01:13:13 10° ENE visible
06 Jun 7.7 02:53:25 35° SSW 02:56:00 88° WNW 03:01:52 10° NNE visible
06 Jun 9.7 04:39:14 10° W 04:43:10 18° NW 04:47:05 10° N visible
07 Jun 9.3 01:18:41 21° ESE 01:19:15 21° ESE 01:23:30 10° ENE visible
07 Jun 8.0 03:02:10 30° SW 03:05:04 61° WNW 03:10:50 10° NNE visible
